Temperature
15 15 15 16 19 20 20 21 20 20 20 19 18 19 21 21 21 20 15 15 15 15 15 15 15 14 14 14 14 14 14 14 14 14 14 14 14 14 14 14 14 14 14 14 14 14 14 14 14
14 15 15 17 19 20 20 20 20 20 19 17 17 18 19 19 17 15 15 15 15 15 15 14 14 14 14 14 14 14 14 14 14 14 14 14 14 14 14 14 14 14 14 14 14 14 14 14 14
14 15 16 18 19 20 21 20 20 19 17 17 18 17 18 18 15 14 15 15 14 14 14 14 14 14 14 14 14 14 14 14 14 14 14 13 13 13 13 14 13 13 13 13 13 14 14 14 14
14 15 16 18 19 19 20 20 18 18 17 16 17 18 16 14 14 14 15 15 14 14 14 14 14 14 14 14 14 14 14 14 13 13 13 13 13 13 13 13 13 13 13 13 13 13 14 14 14
14 16 17 17 18 19 19 18 17 18 18 17 17 18 16 14 14 14 14 14 14 14 14 14 14 14 13 13 14 14 13 13 13 13 13 13 13 13 13 13 13 13 13 13 13 13 13 13 13
14 16 17 18 18 18 18 16 17 18 18 17 17 18 16 14 14 14 14 14 14 14 13 13 13 13 13 13 13 13 13 13 13 13 13 13 13 13 13 13 13 13 13 13 13 13 13 13 13
15 16 17 18 18 18 17 16 17 18 18 17 16 17 16 13 14 14 13 13 13 13 13 13 13 13 13 13 13 13 13 13 13 13 13 13 13 13 13 13 13 13 13 13 13 13 13 13 13
13 16 16 17 17 17 17 15 15 16 17 15 15 17 16 13 13 13 13 13 13 13 13 13 12 12 12 12 12 12 12 12 12 12 12 12 12 12 12 12 12 12 12 12 12 12 12 12 12
12 15 15 16 16 17 16 15 15 14 15 14 14 14 14 13 13 13 12 12 12 12 12 12 12 12 12 12 12 12 12 12 12 12 12 12 12 12 12 12 12 12 12 12 12 12 12 12 12
13 14 15 16 16 16 15 15 15 14 15 14 13 13 13 13 13 12 12 12 12 12 12 12 12 12 12 12 12 11 12 12 12 12 12 12 12 12 12 12 12 12 12 12 12 12 12 12 12
13 14 14 14 13 14 14 14 14 15 16 15 15 13 13 12 12 12 12 12 12 12 12 12 12 12 11 11 11 11 11 11 11 11 11 12 12 12 11 11 12 12 12 12 12 12 11 12 11
12 13 13 13 12 12 13 13 13 14 15 14 13 13 12 12 12 12 12 12 11 12 12 11 12 11 11 11 11 11 11 11 11 11 11 11 11 11 11 11 11 11 11 11 11 11 11 11 11
12 12 12 11 11 11 12 12 13 13 13 13 12 12 12 12 12 12 11 11 11 11 11 11 11 11 11 11 11 10 10 11 11 11 11 11 11 11 11 11 11 11 11 11 11 11 11 11 11
12 12 11 11 11 11 12 12 12 13 12 12 12 11 12 11 11 11 11 11 11 11 11 11 11 11 11 10 10 10 10 10 10 11 11 11 11 11 11 11 11 11 11 10 11 10 10 10 10
10 11 12 12 12 12 12 12 13 12 12 11 11 11 11 11 11 11 11 11 11 11 11 11 11 11 10 10 10 10 10 10 10 10 10 10 10 10 10 10 10 10 10 10 10 10 10 10 10
11 11 12 12 12 11 12 13 14 12 11 12 11 11 11 11 10 11 11 11 10 10 10 10 10 10 10 10 10 10 10 10 10 10 10 10 10 10 10 10 10 10 10 10 10 10 10 9 9
11 12 12 12 12 11 12 13 14 11 11 11 11 11 10 10 10 10 10 10 10 10 10 10 10 10 10 10 10 9 9 9 9 9 9 9 10 10 10 10 9 9 9 9 9 9 9 9 9
11 12 12 12 11 11 11 12 13 11 10 11 11 11 10 10 10 10 10 10 10 10 10 10 10 10 9 9 9 9 9 9 9 9 9 9 9 9 9 9 9 9 9 9 9 9 9 8 8
11 11 11 11 11 10 11 11 12 11 11 11 11 11 10 10 10 9 9 9 9 10 10 10 10 9 9 9 9 8 9 9 9 9 9 9 9 9 9 9 9 8 8 8 8 8 8 8 8
9 9 10 10 10 10 10 11 11 11 11 10 10 10 10 10 9 8 9 9 9 9 9 9 9 9 9 9 8 8 8 8 8 8 8 8 8 8 8 8 8 8 8 8 8 8 8 8 7
8 9 9 9 9 9 9 11 11 11 10 9 9 9 9 9 9 8 8 8 9 9 9 9 9 9 9 8 8 8 8 8 8 8 8 8 8 8 8 8 8 8 8 8 8 7 7 7 7
8 8 8 8 8 9 9 10 11 11 11 10 9 9 9 8 8 8 8 8 8 8 8 9 9 9 8 8 8 8 8 8 8 8 8 8 8 8 8 8 7 7 7 7 7 7 7 7 6
8 7 7 7 8 8 8 9 11 11 11 11 10 9 8 8 7 7 8 8 8 8 8 8 8 8 8 8 8 8 7 7 8 8 8 7 7 7 7 7 7 7 7 7 7 7 7 6 6
6 7 7 7 7 7 9 9 11 11 10 10 10 9 8 7 7 7 7 7 7 7 8 8 8 8 8 8 7 7 7 7 7 7 7 7 7 7 7 7 7 7 7 7 6 6 6 6 6
6 7 8 8 8 9 8 8 10 11 10 9 9 8 8 7 7 6 6 6 7 7 7 7 7 7 7 7 7 7 7 7 7 7 7 7 7 7 7 7 7 7 6 6 6 6 6 6 6
6 7 7 8 9 9 7 8 10 10 9 8 8 7 7 7 6 6 6 6 6 6 6 7 7 7 7 7 7 7 7 7 7 7 7 7 7 7 7 7 6 6 6 6 6 6 6 5 5
6 6 7 7 6 7 9 9 9 9 9 8 7 7 7 6 6 5 5 6 6 6 6 6 6 7 7 7 7 7 7 6 6 6 6 6 6 6 6 6 6 6 6 6 5 5 5 5 5
6 6 6 6 7 8 9 9 10 9 9 8 8 7 7 6 5 5 5 5 6 6 6 6 6 6 6 6 6 6 6 6 6 6 6 6 6 6 6 6 6 6 5 5 5 5 5 5 4
5 5 5 6 6 7 8 10 9 8 8 7 7 7 6 5 5 5 5 5 5 5 6 6 6 6 6 6 6 6 6 6 5 5 5 5 5 5 5 5 5 5 5 5 5 4 4 4 4
5 5 5 6 6 6 7 9 8 7 7 7 7 6 5 5 5 5 5 5 5 5 5 5 5 5 5 5 5 5 5 5 5 5 5 5 5 5 5 5 5 5 5 4 4 4 4 4 4
Wind_Speed
1 1 2 3 5 6 11 8 5 5 4 3 3 3 4 4 2 0 3 4 5 8 9 10 9 10 10 10 10 10 9 9 9 9 9 9 10 10 10 10 10 9 9 10 10 9 10 10 10
1 2 3 4 7 11 10 9 9 7 3 3 3 4 4 4 1 2 3 4 6 8 8 9 10 10 10 10 10 10 9 9 9 9 9 8 9 9 9 9 9 9 9 9 9 9 9 9 9
2 2 4 5 8 12 9 6 7 5 3 4 4 3 3 2 1 2 3 6 7 8 8 9 10 10 10 10 10 9 9 8 8 8 8 8 9 9 8 8 8 8 8 8 8 8 8 8 8
3 3 4 7 14 12 9 4 4 6 4 4 4 3 2 1 0 1 5 7 8 8 8 9 10 10 10 10 9 9 8 8 8 9 8 8 9 8 8 7 7 7 7 7 7 7 7 7 7
3 4 7 10 14 11 8 6 5 7 5 5 5 4 3 2 2 4 6 7 8 7 8 9 9 10 10 10 9 8 8 8 8 8 8 8 8 8 8 7 6 7 7 7 7 7 7 7 7
4 5 8 13 14 11 9 8 7 8 7 5 5 5 3 3 4 5 6 7 7 7 7 9 9 9 10 10 9 8 8 8 8 8 8 7 7 8 8 7 6 6 6 6 6 6 6 7 7
6 6 10 12 12 11 9 7 9 9 9 7 5 5 4 4 4 6 7 6 6 7 7 7 8 8 9 9 9 8 8 7 7 7 7 7 6 7 7 7 6 6 6 6 6 6 6 6 6
4 4 8 11 12 11 7 6 6 8 8 4 5 6 4 5 6 7 7 6 6 6 6 6 7 7 7 8 8 8 8 7 7 7 7 6 6 6 6 6 6 5 5 5 5 5 5 5 5
3 7 11 12 10 8 6 7 5 3 4 4 4 3 0 6 8 8 7 6 6 6 6 6 6 6 7 7 8 7 7 7 6 6 6 5 4 5 5 4 4 5 5 5 5 5 5 4 4
6 9 12 8 8 7 6 7 6 5 7 6 6 4 4 8 10 10 10 10 9 8 7 6 6 6 6 6 7 6 5 6 5 5 5 4 4 3 3 4 4 4 5 5 5 5 4 3 3
6 10 9 8 6 6 7 7 6 9 11 10 9 8 8 9 10 11 11 10 9 9 8 7 6 6 6 5 5 4 4 4 5 5 5 4 4 3 2 2 3 3 3 3 4 4 3 2 1
7 9 10 8 6 6 8 8 8 12 12 8 8 7 9 11 12 12 12 10 9 9 8 7 7 6 6 6 5 4 4 4 4 4 5 4 3 2 2 2 1 2 2 1 2 2 2 2 2
11 9 8 9 8 8 9 11 11 13 12 8 7 8 10 11 12 12 11 10 9 9 9 8 8 7 6 5 4 4 4 4 4 4 4 4 3 3 2 1 1 1 1 1 1 1 2 2 1
6 7 8 9 10 9 11 13 12 13 9 8 8 9 10 11 12 11 11 10 10 10 9 8 8 8 7 5 5 4 4 4 4 4 4 4 3 3 3 2 2 1 1 1 1 1 1 1 1
4 7 9 10 10 7 7 13 15 13 9 9 9 9 10 10 11 11 11 11 11 10 9 9 9 8 8 7 6 5 5 5 4 4 4 4 4 3 3 2 2 1 2 2 1 1 1 1 1
5 7 9 7 7 7 9 16 12 7 9 11 10 10 10 10 11 11 10 10 10 9 9 9 8 8 9 7 6 5 5 5 4 4 4 5 4 4 3 2 2 2 2 2 2 2 1 1 1
7 9 11 9 7 6 10 14 9 5 8 12 11 11 10 11 11 11 10 10 10 9 9 9 9 9 9 8 6 6 5 5 4 4 4 5 5 4 3 2 2 2 2 2 2 2 1 1 1
9 10 11 11 6 8 12 16 12 9 10 12 12 11 11 11 12 11 10 9 9 9 9 9 10 9 8 7 6 5 5 4 4 4 4 5 5 5 3 2 2 2 2 2 2 2 1 1 1
9 10 13 12 7 9 14 17 16 12 12 14 13 12 12 12 10 9 9 9 9 9 9 10 10 10 8 7 7 6 5 5 4 4 5 5 5 5 4 3 3 3 2 2 2 2 1 0 0
10 12 13 10 6 8 13 18 15 14 14 13 13 13 12 11 9 9 9 9 10 10 10 10 10 10 10 8 7 5 5 4 4 4 4 5 5 5 4 4 3 3 3 3 3 2 1 1 1
11 13 12 10 8 8 10 14 13 9 10 10 11 11 10 10 9 9 9 9 9 10 11 10 10 10 10 9 7 5 4 3 3 4 4 5 5 6 5 5 4 4 3 3 3 3 2 2 1
10 8 9 9 8 6 6 9 10 8 8 9 9 9 9 8 8 8 8 9 9 9 9 10 10 10 10 10 9 10 7 6 6 5 5 5 6 6 6 6 5 4 4 4 4 3 3 3 2
5 4 6 7 8 8 8 8 9 7 9 8 7 7 7 6 6 6 6 8 8 8 8 8 9 9 9 10 10 10 8 6 5 5 6 6 5 6 6 6 5 5 4 4 4 4 4 3 3
2 2 4 4 5 8 9 9 9 6 7 6 5 5 4 4 4 4 4 4 5 6 7 7 9 9 9 10 10 10 9 8 7 7 6 5 4 5 6 6 5 5 5 5 5 4 5 4 4
3 3 2 4 5 6 3 7 8 5 5 5 5 5 4 4 3 3 3 4 4 6 6 7 8 8 9 10 10 10 9 9 9 8 7 6 5 5 6 6 6 5 5 5 5 5 5 5 5
5 5 5 4 5 4 4 7 5 4 4 4 4 4 3 3 3 3 4 4 4 5 6 7 8 8 9 9 9 9 8 7 6 7 7 7 5 5 6 6 6 6 5 5 5 4 4 4 4
4 5 4 3 4 6 6 6 6 4 3 3 2 2 2 2 2 2 3 3 4 5 6 7 8 8 8 8 8 8 8 7 7 6 6 5 5 5 6 6 6 5 5 5 5 4 5 5 5
4 3 3 4 4 6 6 7 5 4 3 2 2 2 2 2 1 1 2 3 3 4 5 5 6 7 7 8 8 6 7 7 7 6 6 6 5 5 5 5 5 5 5 5 5 5 5 5 4
4 4 4 4 4 5 6 4 1 3 3 3 2 2 2 2 2 2 2 2 3 3 4 5 5 6 6 6 7 7 7 7 7 6 6 6 5 5 5 5 5 5 5 5 5 5 5 5 4
5 6 6 5 5 5 6 5 1 1 3 3 3 3 2 2 2 2 2 2 3 3 4 5 5 5 5 5 6 6 6 6 6 6 6 6 6 5 5 5 5 5 5 6 6 5 5 5 5
Wind_Direction
225 196 197 202 207 221 233 222 215 195 200 202 196 210 218 220 234 63 76 137 141 150 155 155 149 142 138 137 135 130 126 123 124 129 130 129 129 127 123 117 113 110 105 101 98 96 94 92 88
205 190 195 208 223 225 229 220 213 214 185 161 191 216 221 222 341 76 123 147 152 149 151 151 142 141 140 139 136 132 131 129 129 132 132 130 129 125 122 119 116 113 109 106 102 98 95 94 92
181 216 205 205 223 230 223 203 208 198 191 203 195 221 241 223 152 136 127 153 153 148 148 139 139 141 139 139 138 136 134 134 133 133 135 132 127 124 122 120 117 115 113 112 108 103 101 99 97
191 187 207 223 226 231 234 201 186 187 188 208 209 198 190 60 123 123 138 154 152 149 147 139 139 139 137 136 137 137 140 139 135 132 130 131 130 124 116 114 119 119 115 114 112 110 106 103 105
206 203 210 225 233 231 229 227 209 211 206 197 207 217 194 135 111 130 149 156 153 149 146 144 141 137 135 133 130 132 142 140 133 131 131 130 129 126 120 115 116 121 120 117 115 112 111 111 108
191 208 220 227 230 229 227 224 222 229 223 215 218 226 206 146 147 148 152 157 153 148 144 142 142 140 138 135 132 128 125 129 129 125 124 125 126 127 125 122 122 127 128 127 122 118 114 114 109
212 210 229 233 234 234 229 219 225 228 225 222 222 225 196 176 160 155 156 154 152 148 145 144 148 148 143 137 133 133 128 124 122 120 118 120 127 128 129 127 121 124 130 130 126 124 121 115 110
227 218 230 230 232 237 223 210 225 234 234 225 215 227 210 171 157 155 154 156 155 151 150 149 151 154 153 149 139 135 129 124 121 120 120 122 129 131 130 135 130 131 127 128 126 125 123 118 116
205 224 231 227 228 234 211 210 210 226 218 209 221 249 19 145 156 159 162 167 170 168 165 159 156 157 156 150 145 143 131 127 127 123 118 129 145 147 141 122 122 135 131 132 130 123 121 123 125
205 226 234 235 237 237 218 224 221 213 222 228 223 216 172 167 173 180 184 186 187 185 181 174 165 161 159 150 149 151 147 142 146 143 139 140 137 128 125 104 106 123 127 139 134 126 133 157 152
211 232 239 241 241 246 241 240 233 232 240 238 235 216 190 192 194 200 202 202 199 192 186 182 173 170 164 155 154 151 145 144 148 144 142 143 135 126 123 121 122 128 151 164 147 148 160 165 159
224 238 242 245 241 243 246 250 245 242 249 257 249 225 203 207 207 209 210 209 203 196 192 187 178 176 172 162 158 158 153 153 150 149 149 151 142 137 131 127 133 138 149 157 160 163 163 167 177
231 243 247 249 250 249 252 251 255 255 258 256 243 223 215 218 220 218 215 211 204 201 197 191 185 181 174 167 163 164 164 165 158 156 156 161 159 159 150 141 127 130 126 140 168 178 173 174 181
235 240 250 253 250 250 248 256 251 252 250 241 231 226 223 224 224 219 213 211 207 204 199 192 189 186 178 176 173 173 173 166 165 165 162 171 169 166 165 162 152 150 143 159 199 194 191 204 200
228 252 258 250 244 240 244 254 243 246 240 237 237 234 232 231 228 221 217 214 211 206 200 195 191 190 187 185 180 174 174 175 173 169 170 173 175 174 173 169 169 168 168 180 192 177 188 203 201
235 240 246 239 229 227 227 252 246 235 233 244 245 242 238 236 233 230 222 218 217 210 203 196 191 192 192 190 184 179 178 180 180 174 173 178 179 179 177 180 179 175 177 180 185 186 199 203 223
225 238 247 252 227 228 231 257 254 238 243 251 251 247 242 240 238 234 226 219 216 211 205 198 193 193 193 189 184 179 177 181 183 182 180 179 183 188 189 186 182 178 179 184 186 187 205 214 224
237 244 251 251 238 235 245 258 260 251 251 255 256 251 244 241 239 233 227 221 217 212 206 202 196 193 188 183 179 176 177 179 184 187 186 182 181 185 185 176 176 178 185 184 186 176 183 207 214
253 253 258 261 263 252 256 264 266 260 253 253 253 250 247 245 243 235 227 219 213 209 205 200 197 192 185 182 184 185 187 184 186 187 188 188 185 183 185 179 180 185 186 193 187 179 170 194 267
248 253 261 270 265 258 266 268 266 258 251 250 253 252 250 250 244 235 224 215 210 207 205 200 196 194 190 189 188 192 186 190 188 184 188 188 187 184 188 188 188 188 187 187 184 177 207 220 243
248 249 258 268 282 263 272 269 256 254 249 249 249 253 252 247 242 236 224 218 211 206 203 199 195 192 191 187 181 172 169 167 177 186 189 190 190 190 190 192 192 190 191 192 191 194 202 208 227
255 258 258 259 259 259 251 273 262 257 251 247 245 244 245 245 243 237 226 218 212 206 199 195 193 190 189 187 185 184 191 195 199 193 190 186 191 197 196 194 194 192 194 195 194 197 204 199 206
253 270 257 253 252 263 248 255 263 247 250 248 240 241 244 245 241 234 229 225 219 205 195 192 189 188 188 190 192 194 199 199 190 186 186 188 190 198 199 196 195 194 196 197 193 193 201 204 209
217 271 267 244 238 249 239 238 261 243 244 248 244 243 244 244 236 232 226 221 214 200 192 188 186 188 189 191 194 199 199 193 186 189 191 192 192 196 198 198 198 200 199 196 198 195 200 204 209
215 237 253 230 224 242 226 241 254 259 251 250 254 253 254 246 234 224 215 210 203 195 191 190 188 189 190 193 197 200 200 196 195 194 197 196 195 199 199 198 201 200 201 199 199 198 203 205 206
223 228 244 258 257 272 243 243 255 276 268 259 256 252 252 252 242 227 216 207 202 195 192 192 192 192 192 196 198 199 198 199 199 196 195 197 199 202 201 200 202 200 199 198 197 199 203 207 210
203 221 255 265 276 267 247 255 270 255 250 238 241 245 255 270 263 242 226 211 204 196 195 196 195 194 195 197 197 196 194 199 199 197 197 198 198 196 196 199 199 198 198 198 195 202 203 206 213
251 207 198 218 249 259 257 260 254 241 254 267 259 247 266 287 288 264 239 224 216 205 198 199 198 197 194 195 197 197 195 198 197 194 195 195 194 191 194 199 200 197 196 196 198 203 205 207 213
205 205 221 228 253 263 270 262 287 261 272 277 269 269 271 283 286 275 263 239 217 202 197 194 195 196 192 192 194 194 193 193 194 195 197 196 192 189 194 198 201 200 198 196 200 205 205 209 214
245 228 214 233 238 247 266 270 50 307 299 285 292 294 276 278 282 285 276 240 202 193 192 190 190 191 193 192 191 191 191 189 192 196 195 192 191 189 192 194 200 202 201 200 201 203 206 209 214
Height
1511 1513 1515 1518 1517 1512 1507 1504 1505 1508 1509 1511 1512 1511 1509 1509 1511 1516 1515 1513 1515 1517 1519 1520 1522 1523 1524 1525 1527 1527 1528 1529 1530 1531 1532 1532 1533 1534 1534 1534 1535 1535 1535 1535 1535 1535 1535 1535 1535
1511 1513 1517 1517 1511 1507 1503 1502 1506 1506 1509 1511 1512 1512 1511 1511 1513 1513 1512 1513 1515 1517 1518 1520 1521 1523 1524 1525 1526 1527 1528 1529 1530 1531 1531 1532 1533 1533 1534 1534 1535 1535 1535 1535 1536 1536 1536 1535 1535
1511 1513 1516 1512 1507 1500 1499 1502 1504 1508 1510 1511 1511 1512 1511 1512 1513 1512 1512 1513 1515 1517 1518 1520 1521 1523 1524 1525 1526 1527 1528 1529 1529 1530 1531 1532 1532 1533 1534 1534 1535 1535 1535 1536 1536 1536 1536 1536 1536
1512 1514 1514 1509 1502 1499 1499 1502 1506 1507 1510 1510 1510 1510 1511 1512 1512 1511 1511 1513 1515 1517 1518 1519 1521 1522 1524 1525 1526 1527 1528 1528 1529 1530 1531 1531 1532 1533 1534 1534 1535 1535 1536 1536 1536 1536 1536 1536 1536
1511 1512 1509 1505 1500 1499 1502 1505 1507 1506 1507 1509 1510 1508 1510 1510 1509 1510 1511 1513 1514 1516 1518 1519 1521 1522 1523 1524 1525 1526 1527 1528 1529 1529 1530 1531 1532 1533 1533 1534 1534 1535 1535 1536 1536 1536 1536 1536 1536
1511 1508 1504 1499 1497 1499 1502 1506 1506 1505 1506 1508 1509 1508 1509 1509 1509 1509 1511 1512 1514 1516 1517 1518 1520 1522 1523 1524 1525 1526 1527 1527 1528 1529 1529 1530 1531 1532 1532 1533 1534 1534 1535 1535 1535 1535 1535 1535 1535
1508 1504 1499 1496 1496 1498 1501 1504 1505 1503 1504 1506 1507 1507 1507 1508 1508 1509 1510 1512 1514 1515 1516 1518 1519 1521 1522 1523 1524 1525 1526 1527 1527 1528 1529 1529 1530 1531 1531 1532 1533 1533 1534 1535 1535 1535 1535 1535 1535
1505 1504 1500 1497 1496 1496 1500 1503 1504 1503 1503 1505 1506 1505 1505 1506 1506 1508 1509 1511 1513 1514 1515 1516 1518 1519 1521 1522 1523 1524 1525 1526 1527 1527 1528 1528 1529 1530 1531 1531 1532 1532 1533 1534 1534 1534 1534 1534 1534
1505 1504 1496 1495 1495 1496 1500 1501 1502 1503 1503 1504 1504 1504 1504 1504 1505 1507 1508 1510 1511 1512 1513 1515 1516 1518 1519 1521 1522 1523 1524 1525 1526 1526 1527 1528 1529 1529 1530 1530 1531 1531 1532 1533 1533 1533 1534 1534 1534
1503 1498 1493 1494 1495 1496 1499 1499 1500 1501 1501 1502 1502 1502 1502 1502 1503 1504 1506 1507 1508 1510 1511 1513 1514 1516 1517 1519 1520 1521 1522 1523 1524 1525 1526 1526 1527 1528 1528 1529 1529 1530 1531 1532 1532 1532 1533 1533 1533
1499 1495 1494 1496 1498 1498 1498 1499 1499 1499 1497 1498 1499 1499 1500 1501 1502 1502 1504 1505 1506 1508 1509 1511 1512 1514 1515 1516 1518 1519 1520 1521 1522 1523 1524 1525 1525 1526 1527 1527 1528 1528 1529 1530 1531 1531 1531 1532 1532
1497 1495 1496 1496 1497 1498 1498 1497 1497 1496 1495 1496 1497 1497 1498 1498 1499 1499 1501 1502 1504 1505 1507 1508 1510 1511 1513 1514 1515 1517 1518 1519 1520 1521 1522 1523 1524 1524 1525 1526 1526 1527 1527 1528 1529 1529 1530 1530 1530
1495 1494 1496 1496 1497 1497 1496 1495 1495 1493 1493 1493 1494 1494 1494 1495 1496 1497 1498 1500 1501 1502 1504 1505 1507 1509 1510 1512 1513 1514 1516 1516 1518 1519 1520 1521 1522 1522 1523 1524 1524 1525 1525 1526 1527 1527 1528 1528 1529
1493 1494 1494 1495 1494 1494 1494 1492 1492 1488 1490 1490 1490 1491 1491 1492 1492 1493 1494 1495 1497 1499 1501 1502 1504 1506 1508 1509 1511 1512 1513 1514 1515 1516 1517 1518 1519 1520 1521 1522 1522 1523 1523 1524 1524 1525 1526 1526 1527
1494 1493 1491 1490 1491 1491 1492 1487 1485 1485 1487 1487 1487 1488 1488 1488 1489 1489 1490 1491 1493 1495 1497 1499 1501 1503 1505 1506 1508 1510 1511 1512 1513 1514 1515 1516 1517 1518 1519 1519 1520 1521 1521 1522 1523 1523 1523 1524 1524
1491 1489 1485 1485 1488 1489 1491 1478 1478 1482 1483 1483 1484 1484 1484 1484 1485 1485 1486 1488 1490 1491 1493 1495 1497 1499 1501 1503 1505 1507 1508 1509 1510 1511 1512 1513 1514 1515 1516 1517 1518 1518 1519 1520 1520 1521 1521 1521 1522
1486 1482 1479 1481 1484 1486 1485 1475 1476 1479 1480 1480 1480 1480 1480 1480 1481 1481 1482 1483 1485 1487 1489 1491 1493 1495 1498 1500 1502 1503 1505 1506 1507 1508 1509 1510 1511 1512 1513 1514 1515 1516 1517 1517 1518 1518 1519 1519 1519
1478 1477 1477 1477 1480 1483 1480 1473 1474 1477 1477 1476 1475 1475 1475 1475 1476 1477 1478 1479 1481 1483 1485 1487 1489 1492 1494 1496 1498 1500 1501 1502 1504 1505 1506 1507 1509 1510 1511 1512 1512 1513 1514 1514 1515 1515 1516 1517 1517
1479 1479 1476 1476 1479 1481 1476 1471 1470 1472 1473 1472 1471 1470 1470 1471 1472 1473 1474 1475 1476 1478 1480 1482 1484 1487 1489 1491 1493 1495 1497 1499 1500 1501 1503 1504 1506 1507 1508 1509 1510 1510 1511 1512 1512 1513 1513 1514 1514
1482 1479 1476 1476 1479 1478 1473 1468 1465 1466 1466 1466 1466 1466 1466 1467 1468 1468 1469 1470 1471 1473 1476 1478 1480 1482 1485 1487 1490 1492 1494 1495 1497 1498 1500 1501 1503 1504 1505 1506 1507 1508 1508 1509 1509 1510 1511 1511 1512
1480 1478 1475 1476 1477 1477 1475 1462 1458 1459 1461 1462 1462 1462 1462 1462 1462 1463 1464 1465 1467 1468 1470 1473 1475 1478 1481 1484 1486 1488 1490 1492 1493 1495 1496 1498 1500 1501 1502 1503 1504 1505 1505 1506 1507 1507 1508 1508 1509
1477 1477 1478 1478 1476 1470 1472 1460 1451 1454 1455 1456 1457 1457 1457 1458 1459 1459 1460 1461 1462 1464 1467 1469 1471 1474 1477 1480 1482 1484 1486 1488 1489 1491 1493 1495 1496 1498 1499 1500 1501 1502 1502 1503 1504 1504 1505 1505 1506
1476 1479 1478 1476 1474 1472 1468 1466 1447 1450 1449 1450 1452 1453 1454 1455 1455 1455 1456 1457 1459 1461 1463 1465 1468 1470 1473 1476 1478 1480 1483 1485 1487 1488 1490 1492 1493 1495 1496 1497 1498 1498 1499 1500 1500 1501 1502 1502 1503
1479 1479 1477 1474 1472 1469 1459 1459 1444 1443 1444 1446 1449 1450 1451 1452 1452 1452 1453 1454 1455 1457 1459 1461 1464 1466 1469 1472 1474 1476 1479 1481 1483 1485 1486 1488 1489 1491 1492 1494 1495 1495 1496 1497 1497 1498 1498 1499 1500
1478 1476 1470 1466 1463 1454 1458 1457 1445 1441 1444 1446 1447 1448 1448 1449 1449 1450 1450 1451 1451 1453 1455 1457 1460 1462 1465 1468 1470 1472 1475 1477 1479 1481 1483 1484 1486 1487 1488 1490 1491 1492 1493 1493 1494 1494 1495 1495 1496
1474 1473 1470 1463 1453 1449 1458 1451 1441 1443 1444 1446 1446 1446 1446 1447 1447 1447 1447 1448 1449 1450 1452 1454 1456 1459 1461 1464 1466 1469 1471 1473 1475 1477 1479 1480 1482 1483 1485 1486 1487 1488 1489 1490 1491 1491 1492 1492 1493
1473 1471 1471 1470 1466 1459 1446 1444 1443 1442 1443 1444 1444 1445 1445 1445 1445 1445 1445 1446 1447 1448 1449 1451 1453 1455 1458 1460 1463 1465 1467 1469 1471 1473 1475 1477 1478 1480 1481 1482 1483 1484 1485 1486 1487 1487 1488 1489 1489
1473 1470 1471 1468 1461 1448 1441 1440 1436 1439 1440 1441 1442 1443 1444 1444 1443 1443 1443 1444 1445 1446 1447 1449 1451 1453 1455 1457 1459 1461 1463 1466 1468 1470 1471 1473 1474 1476 1477 1478 1479 1480 1481 1482 1483 1484 1485 1485 1486
1472 1472 1468 1465 1462 1453 1443 1436 1437 1439 1440 1441 1442 1442 1442 1442 1442 1441 1441 1442 1442 1444 1445 1446 1448 1450 1452 1454 1456 1458 1460 1462 1464 1466 1467 1469 1470 1472 1473 1474 1476 1477 1477 1478 1479 1480 1481 1481 1482
1469 1466 1466 1463 1462 1459 1449 1441 1440 1441 1441 1442 1441 1441 1441 1441 1441 1440 1440 1440 1440 1441 1442 1444 1445 1447 1448 1450 1452 1454 1457 1459 1460 1462 1464 1465 1467 1468 1470 1471 1472 1473 1474 1475 1476 1476 1477 1477 1478